www.pogodaiklimat.ru

Погода и климат >> Архив погоды >> Австралия >> Северная территория >> Юлара


ПОГОДА в Юларе

  • Прогноз погоды в Юларе
  • Монитор погоды в Юларе

АРХИВ ПОГОДЫ в Юларе

Время (UTC), дата Ветер
(напр.,м/с)
 
Видим.   Явления Облачность Т
(С)
Тd
(С)
f
(%)
Тe
(С)
Тes
(С)
Комфортность P
(гПа)
Po
(гПа)
Тmin
(С)
Tmax
(С)
R
(мм)
R24
(мм)
S
(см)
11 17.01 С 4 н/о н/о +39.9 +7.4 14 +38 +38 очень
жарко
999.5 946.2
12 17.01 ЮЗ 6 н/о н/о +38.6 +9.2 17 +37 +37 очень
жарко
1000.6 947.2
14 17.01 З 3 н/о н/о +34.1 +9.4 22 +33 +33 жарко 1001.0 947.6
15 17.01 Ю 3 н/о н/о +33.8 +9.8 23 +33 +33 жарко 1001.2 947.8
17 17.01 СВ 7 н/о н/о +35.6 +10.6 22 +35 +35 очень
жарко
1001.5 948.1
18 17.01 ЮВ 4 н/о н/о +35.4 +11.1 23 +35 +35 очень
жарко
1001.6 948.2
20 17.01 ЮВ 6 н/о н/о +33.5 +9.5 23 +33 +33 жарко 1002.9 949.4
21 17.01 Ю 3 н/о н/о +31.5 +9.7 26 +31 +31 жарко 1004.1 950.5
23 17.01 ЮВ 5 н/о н/о +33.2 +9.3 23 +32 +32 жарко 1006.1 952.4
00 18.01 ЮВ 5 н/о н/о +34.2 +8.8 21 +33 +33 жарко 1006.3 952.6
02 18.01 ЮВ 3 н/о н/о +36.2 +10.4 21 +35 +35 очень
жарко
1006.1 952.4
03 18.01 ЮВ 3 н/о н/о +36.2 +10.4 21 +35 +35 очень
жарко
1006.1 952.4
05 18.01 Ю 3 н/о н/о +37.5 +10.7 20 +36 +36 очень
жарко
1005.4 951.8
06 18.01 Ю 5 н/о н/о +38.4 +9.9 18 +37 +37 очень
жарко
1004.6 951.0
08 18.01 Ю 14 н/о н/о +35.9 +12.8 25 +36 +36 очень
жарко
1004.0 950.4
09 18.01 Ю 11 н/о н/о +33.8 +12.7 28 +34 +34 очень
жарко
1006.7 953.0
11 18.01 Ю 8 н/о н/о +27.1 +17.3 55 +31 +31 душно 1009.4 955.5
12 18.01 Ю 6 н/о н/о +26.5 +18.4 61 +31 +31 душно 1010.6 956.7
14 18.01 Ю 5 н/о н/о +27.0 +18.6 60 +32 +32 очень
душно
1010.2 956.3
15 18.01 Ю 5 н/о н/о +27.8 +15.5 47 +31 +31 душно 1010.4 956.5
17 18.01 Ю 4 н/о н/о +26.3 +15.4 51 +29 +29 жарко 1009.6 955.7
18 18.01 Ю 4 н/о н/о +26.0 +16.5 56 +30 +30 душно 1009.3 955.4
20 18.01 ЮВ 5 н/о н/о +26.7 +15.1 49 +29 +29 жарко 1009.6 955.7
21 18.01 ЮВ 4 н/о н/о +26.3 +15.4 51 +29 +29 жарко 1010.3 956.4
23 18.01 ЮВ 6 н/о н/о +29.6 +16.4 45 +33 +33 душно 1011.5 957.5
00 19.01 ЮВ 7 н/о н/о +31.7 +15.6 38 +34 +34 душно 1011.3 957.3
02 19.01 В 7 н/о н/о +35.1 +14.9 30 +37 +37 очень
душно
1010.4 956.5
03 19.01 ЮВ 5 н/о н/о +36.3 +14.3 27 +37 +37 очень
жарко
1010.0 956.1
05 19.01 Ю 4 н/о н/о +38.5 +13.7 23 +39 +39 душно 1008.3 954.5
06 19.01 ЮВ 6 н/о н/о +39.2 +12.9 21 +39 +39 очень
жарко
1007.5 953.7
08 19.01 ЮВ 6 н/о н/о +39.8 +12.6 20 +39 +39 очень
жарко
1005.9 952.2
09 19.01 В 7 н/о н/о +39.6 +12.4 20 +39 +39 очень
жарко
1006.0 952.3
11 19.01 С 5 н/о н/о +26.4 +22.0 77 +34 +34 очень
душно
1009.8 955.9
12 19.01 З 6 н/о н/о +25.8 +21.9 79 +33 +33 очень
душно
1009.1 955.3
14 19.01 ЮЗ 9 н/о н/о +24.5 +20.8 80 +31 +31 очень
душно
1010.2 956.3
15 19.01 Ю 8 н/о н/о +25.8 +18.7 65 +31 +31 очень
душно
1009.9 956.0
17 19.01 Ю 6 н/о н/о +25.1 +14.3 51 +28 +28 жарко 1010.5 956.6
18 19.01 Ю 6 н/о н/о +24.5 +13.1 49 +27 +27 жарко 1010.2 956.3
20 19.01 Ю 6 н/о н/о +24.7 +12.3 46 +26 +26 жарко 1010.1 956.2
21 19.01 Ю 4 н/о н/о +24.1 +12.7 49 +26 +26 жарко 1010.9 957.0
23 19.01 Ю 6 н/о н/о +28.8 +10.0 31 +29 +29 жарко 1012.0 958.0
00 20.01 ЮВ 7 н/о н/о +31.9 +10.0 26 +31 +31 жарко 1011.9 957.9
02 20.01 В 7 н/о н/о +37.0 +7.9 17 +35 +35 очень
жарко
1010.8 956.9
03 20.01 В 5 н/о н/о +38.8 +8.5 16 +37 +37 очень
жарко
1010.1 956.2
05 20.01 В 7 н/о н/о +41.2 +4.9 11 +38 +38 очень
жарко
1007.8 954.0
06 20.01 В 5 н/о н/о +41.6 +3.8 10 +38 +38 очень
жарко
1006.6 952.9
08 20.01 В 4 н/о н/о +41.6 +2.3 9 +38 +38 очень
жарко
1005.2 951.6
09 20.01 В 5 н/о н/о +40.9 +4.6 11 +38 +38 очень
жарко
1005.4 951.8
11 20.01 ЮВ 7 н/о н/о +36.6 +8.4 18 +35 +35 очень
жарко
1007.2 953.5
12 20.01 ЮВ 8 н/о н/о +35.7 +9.3 20 +34 +34 очень
жарко
1007.9 954.1
14 20.01 Ю 7 н/о н/о +33.3 +10.0 24 +33 +33 жарко 1009.0 955.2
15 20.01 Ю 6 н/о н/о +32.0 +10.1 26 +32 +32 жарко 1008.5 954.7
17 20.01 ЮВ 6 н/о н/о +31.3 +9.5 26 +31 +31 жарко 1006.9 953.2
18 20.01 ЮВ 5 н/о н/о +30.9 +9.7 27 +30 +30 жарко 1006.9 953.2
20 20.01 В 6 н/о н/о +31.7 +9.8 26 +31 +31 жарко 1007.0 953.3
21 20.01 В 5 н/о н/о +31.5 +9.1 25 +31 +31 жарко 1007.5 953.7
23 20.01 В 9 н/о н/о +34.9 +7.9 19 +33 +33 жарко 1008.0 954.2
00 21.01 В 10 н/о н/о +36.7 +8.5 18 +35 +35 очень
жарко
1008.3 954.5
02 21.01 СВ 8 н/о н/о +39.9 +7.4 14 +38 +38 очень
жарко
1007.2 953.5
03 21.01 СВ 7 н/о н/о +41.3 +6.2 12 +39 +39 очень
жарко
1006.7 953.0
05 21.01 СВ 7 н/о н/о +42.2 +5.6 11 +39 +39 очень
жарко
1004.8 951.2
06 21.01 В 7 н/о н/о +41.8 +4.0 10 +39 +39 очень
жарко
1004.3 950.7
08 21.01 В 5 н/о н/о +41.1 +3.4 10 +38 +38 очень
жарко
1003.4 949.9
09 21.01 ЮВ 4 н/о н/о +40.4 +4.3 11 +37 +37 очень
жарко
1003.4 949.9
11 21.01 Ю 4 н/о н/о +35.6 +7.6 18 +34 +34 очень
жарко
1004.2 950.6
12 21.01 ЮВ 4 н/о н/о +36.7 +4.9 14 +34 +34 очень
жарко
1004.8 951.2
14 21.01 ЮВ 4 н/о н/о +36.1 +4.4 14 +33 +33 жарко 1005.9 952.2
15 21.01 ЮВ 4 н/о н/о +36.0 +3.3 13 +33 +33 жарко 1005.7 952.0
17 21.01 Ю 3 н/о н/о +31.1 +6.9 22 +30 +30 жарко 1005.0 951.4
18 21.01 ЮВ 3 н/о н/о +32.3 +3.3 16 +30 +30 жарко 1005.1 951.5
20 21.01 В 3 н/о н/о +28.6 +6.1 24 +27 +27 жарко 1005.2 951.6
21 21.01 Ю 2 н/о н/о +25.7 +5.3 27 +25 +25 комфорт 1005.7 952.0
23 21.01 СВ 4 н/о н/о +35.0 +1.4 12 +32 +32 жарко 1006.6 952.9
00 22.01 С 6 н/о н/о +38.9 +10.3 18 +38 +38 очень
жарко
1006.4 952.7
02 22.01 СВ 6 н/о н/о +40.3 +7.7 14 +38 +38 очень
жарко
1005.8 952.1
03 22.01 СВ 7 н/о н/о +40.7 +6.9 13 +38 +38 очень
жарко
1005.1 951.5
05 22.01 С 4 н/о н/о +42.5 +5.9 11 +40 +40 очень
жарко
1003.4 949.9
06 22.01 В 5 н/о н/о +43.0 +4.9 10 +40 +40 очень
жарко
1002.7 949.2
08 22.01 С 5 н/о н/о +42.3 +4.3 10 +39 +39 очень
жарко
1001.0 947.6
09 22.01 СВ 8 н/о н/о +40.9 +4.6 11 +38 +38 очень
жарко
1001.3 947.9
11 22.01 З 4 н/о н/о +38.1 +7.9 16 +36 +36 очень
жарко
1002.6 949.1
12 22.01 СЗ 8 н/о н/о +35.5 +10.5 22 +35 +35 очень
жарко
1004.7 951.1
14 22.01 З 4 н/о н/о +34.1 +11.3 25 +34 +34 очень
жарко
1004.9 951.3
15 22.01 ЮЗ 1 н/о н/о +33.3 +11.2 26 +33 +33 жарко 1004.7 951.1
17 22.01 ЮЗ 2 н/о н/о +31.0 +11.9 31 +31 +31 жарко 1004.0 950.4
18 22.01 ЮЗ 2 н/о н/о +29.0 +11.6 34 +30 +30 жарко 1004.3 950.7
20 22.01 З 4 н/о н/о +27.2 +12.8 41 +29 +29 жарко 1005.6 951.9
21 22.01 З 2 н/о н/о +27.1 +13.4 43 +29 +29 жарко 1006.0 952.3
23 22.01 СЗ 5 н/о н/о +33.9 +13.4 29 +35 +35 очень
жарко
1006.8 953.1
00 23.01 З 3 н/о н/о +35.8 +13.3 26 +36 +36 очень
жарко
1006.6 952.9
02 23.01 СВ 4 н/о н/о +40.5 +10.7 17 +39 +39 очень
жарко
1005.4 951.8
03 23.01 СВ 7 н/о н/о +41.4 +7.4 13 +39 +39 очень
жарко
1004.7 951.1
05 23.01 СВ 7 н/о н/о +43.0 +7.5 12 +41 +41 опасность
перегрева
1002.7 949.2
06 23.01 ЮВ 6 н/о н/о +42.1 +6.8 12 +40 +40 очень
жарко
1002.1 948.6
08 23.01 С 3 н/о н/о +42.6 +5.9 11 +40 +40 очень
жарко
1000.6 947.2
09 23.01 В 10 н/о н/о +40.6 +6.8 13 +38 +38 очень
жарко
1001.0 947.6
11 23.01 СВ 2 н/о н/о +39.1 +7.7 15 +37 +37 очень
жарко
1001.5 948.1
12 23.01 СЗ 2 н/о н/о +37.0 +8.8 18 +35 +35 очень
жарко
1002.3 948.8
14 23.01 С 4 н/о н/о +36.8 +8.6 18 +35 +35 очень
жарко
1003.0 949.5
15 23.01 СЗ 3 н/о н/о +36.4 +9.8 20 +35 +35 очень
жарко
1003.2 949.7
17 23.01 Ю 1 н/о н/о +33.3 +11.8 27 +33 +33 жарко 1002.5 949.0
18 23.01 ЮВ 3 н/о н/о +33.5 +11.9 27 +34 +34 очень
жарко
1002.4 948.9
20 23.01 штиль 0 н/о н/о +30.8 +12.7 33 +32 +32 жарко 1002.8 949.3
21 23.01 штиль 0 н/о н/о +29.3 +12.3 35 +30 +30 жарко 1003.2 949.7
23 23.01 С 3 н/о н/о +35.9 +11.5 23 +35 +35 очень
жарко
1004.4 950.8
00 24.01 СЗ 5 н/о н/о +38.2 +12.0 21 +38 +38 очень
жарко
1004.5 950.9
02 24.01 С 4 н/о н/о +40.6 +10.8 17 +39 +39 очень
жарко
1004.0 950.4
03 24.01 СВ 6 н/о н/о +41.5 +7.5 13 +39 +39 очень
жарко
1003.1 949.6
05 24.01 В 6 н/о н/о +42.8 +7.3 12 +40 +40 очень
жарко
1001.3 947.9
06 24.01 В 5 н/о н/о +44.0 +5.6 10 +41 +41 опасность
перегрева
1000.4 947.0
08 24.01 В 3 н/о н/о +43.5 +3.7 9 +40 +40 очень
жарко
999.1 945.8
09 24.01 С 3 н/о н/о +43.5 +2.1 8 +40 +40 очень
жарко
999.1 945.8

 

Местоположение метеостанции Юлара (Северная территория, Австралия): широта -25.20 долгота 130.98 высота над уровнем моря 492 м.

В архиве по умолчанию представлена погода в Юларе за последнюю неделю. Архивные данные за месяц целиком и за предыдущие месяцы, начиная с января 2011 года, Вы можете получить, выбрав интересующий диапазон дат из раскрывающегося списка и нажав кнопку "Ввод!".


*Определитесь, кто Вы:
робот инопланетянин человек

Внимание! Время в таблицах - всемирное. Для получения местного времени необходимо прибавить поправку, которая равна 8 ч.

Смотрите также архив погоды в соседних городах и на ближайших метеорологических станциях:

Погода в Эрнабелле (Южная Австралия, Австралия) (169 км)
Погода в Кинторе (Северная территория, Австралия) (270 км)
Погода в Джайлсе (Западная Австралия, Австралия) (271 км)
Погода в Элис-Спрингсе (Северная территория, Австралия) (332 км)
Погода на Виноградной ферма (Северная территория, Австралия) (408 км)
Погода в Уорбертоне (Западная Австралия, Австралия) (453 км)
Погода в Однадатте (Южная Австралия, Австралия) (516 км)
Погода в Кубер-Педи (Южная Австралия, Австралия) (564 км)
Погода в Раббит Флат (Северная территория, Австралия) (567 км)
Погода в Джервойсе (Северная территория, Австралия) (582 км)

Пояснения к столбцам:

Ветер - указаны скорость ветра в м/с - средняя за 10 мин, порывы в срок и между сроками (в фигурных скобках) и направление, откуда дует ветер: С - северный, СВ - северо-восточный, В - восточный, ЮВ - юго-восточный, Ю - южный, ЮЗ - юго-западный, З - западный, СЗ - северо-западный.
Видимость - горизонтальная дальность видимости в метрах или километрах. При видимости от 1 до 10 км при отсутствии осадков обычно наблюдается дымка, при ухудшении видимости до 1 км и менее - туман. В сухую погоду видимость может ухудшаться дымом, пылью или мглою.
Явления - указаны атмосферные явления, наблюдавшиеся в срок или в последний час перед сроком; фигурными скобками обозначены явления, наблюдавшиеся между сроками (за 1-3 часа до срока); квадратными скобками обозначены град или гололедные отложения с указанием их диаметра в мм.
Облачность - указаны через наклонную черту общая и нижняя облачность в баллах и высота нижней границы облаков в метрах; квадратными скобками обозначены формы облаков: Ci - перистые, Cs - перисто-слоистые, Cc - перисто-кучевые, Ac - высококучевые, As - высокослоистые, Sc - слоисто-кучевые, Ns - слоисто-дождевые, Cu - кучевые, Cb - кучево-дождевые. Подробнее классификацию облаков см. в Атласе облаков (PDF).
T - Температура воздуха - температура, измеренная на высоте 2 м над землей.
Td - Температура точки росы - температура, при понижении до которой содержащийся в воздухе водяной пар достигнет насыщения.
f - Относительная влажность воздуха - влажноcть воздуха, измеренная на высоте 2 м над землей.
Te - Эффективная температура - температура, которую ощущает одетый по сезону человек в тени. Характеристика душности погоды. При расчете учитывается влияние влажности воздуха и скорости ветра на теплоощущения человека.
Tes - Эффективная температура на солнце - температура, которую ощущает человек, с поправкой на солнечный нагрев. Характеристика знойности погоды. Зависит от высоты солнца над горизонтом, облачности и скорости ветра. Ночью, в пасмурную погоду, а также при ветре 12 м/с и более поправка равна нулю.
P - Атмосферное давление - приведенное к уровню моря атмосферное давление.
Po - Атмосферное давление - измеренное на уровне метеостанции атмосферное давление.
Tmin - Минимальная температура - минимум температуры воздуха на высоте 2 м над землей.
Tmax - Максимальная температура - максимум температуры воздуха на высоте 2 м над землей.
R - Количество осадков - Количество выпавших осадков за период времени, мм. При наведении курсора мыши на число - период времени, за который выпало указанное количество осадков.
R24 - Количество осадков - Количество выпавших осадков за 24 часа, мм.
S - Снежный покров - Высота снежного покрова, см. При наведении курсора мыши на число - состояние снежного покрова и степень покрытия местности в баллах.